GFSMW_prec_precacc6_084.txt.gz
Total_Precipitation_Accumulation
0.00 0.00 0.00 0.00 0.00 0.00 0.00 0.00 0.00 0.02 0.00 0.00 0.00 0.00 0.01 0.01 0.01 0.01 0.01 0.02 0.05 0.29 0.27 0.22 0.09 0.05 0.03 0.15 0.31 0.39 0.24 0.21 0.03 0.00 0.01 0.01 0.00 0.00 0.00 0.00 0.00 0.00 0.00
0.00 0.00 0.00 0.00 0.00 0.00 0.00 0.00 0.00 0.00 0.00 0.00 0.00 0.00 0.00 0.01 0.01 0.02 0.01 0.02 0.02 0.09 0.52 0.33 0.26 0.12 0.11 0.10 0.30 0.30 0.18 0.16 0.04 0.00 0.01 0.02 0.02 0.01 0.00 0.00 0.00 0.00 0.00
0.00 0.00 0.00 0.00 0.00 0.00 0.00 0.00 0.00 0.00 0.00 0.00 0.00 0.00 0.01 0.01 0.02 0.03 0.03 0.01 0.04 0.07 0.22 0.47 0.34 0.26 0.25 0.13 0.13 0.22 0.13 0.07 0.05 0.00 0.00 0.01 0.01 0.01 0.01 0.00 0.00 0.00 0.00
0.00 0.00 0.00 0.00 0.00 0.00 0.00 0.00 0.00 0.00 0.00 0.00 0.00 0.00 0.00 0.00 0.01 0.01 0.02 0.02 0.04 0.09 0.09 0.26 0.29 0.27 0.28 0.27 0.12 0.16 0.15 0.08 0.03 0.02 0.00 0.00 0.00 0.00 0.01 0.01 0.00 0.00 0.00
0.00 0.00 0.00 0.00 0.00 0.00 0.00 0.00 0.00 0.00 0.00 0.00 0.00 0.00 0.00 0.00 0.01 0.01 0.01 0.01 0.01 0.02 0.08 0.20 0.38 0.38 0.35 0.29 0.18 0.13 0.14 0.09 0.04 0.00 0.01 0.00 0.01 0.00 0.00 0.00 0.00 0.00 0.00
0.00 0.00 0.00 0.00 0.00 0.00 0.00 0.00 0.01 0.01 0.00 0.00 0.00 0.00 0.00 0.00 0.01 0.01 0.01 0.01 0.00 0.01 0.14 0.34 0.31 0.48 0.37 0.29 0.26 0.13 0.12 0.08 0.04 0.02 0.01 0.01 0.01 0.00 0.00 0.01 0.01 0.00 0.00
0.00 0.00 0.00 0.00 0.00 0.00 0.00 0.00 0.00 0.00 0.00 0.00 0.00 0.00 0.00 0.00 0.01 0.01 0.01 0.01 0.01 0.01 0.05 0.22 0.30 0.34 0.38 0.23 0.23 0.20 0.11 0.09 0.04 0.02 0.02 0.01 0.00 0.00 0.00 0.01 0.01 0.01 0.00
0.01 0.00 0.00 0.00 0.00 0.00 0.00 0.00 0.00 0.00 0.00 0.00 0.00 0.00 0.00 0.00 0.01 0.01 0.01 0.01 0.01 0.01 0.03 0.07 0.19 0.21 0.30 0.26 0.18 0.15 0.07 0.06 0.05 0.04 0.02 0.02 0.01 0.01 0.00 0.01 0.01 0.01 0.00
0.01 0.01 0.00 0.00 0.00 0.00 0.00 0.00 0.00 0.01 0.01 0.01 0.00 0.00 0.00 0.00 0.01 0.01 0.01 0.03 0.02 0.02 0.01 0.02 0.10 0.17 0.13 0.24 0.15 0.09 0.04 0.03 0.03 0.04 0.02 0.01 0.01 0.02 0.01 0.01 0.02 0.04 0.02
0.00 0.01 0.02 0.01 0.01 0.03 0.06 0.04 0.00 0.01 0.02 0.05 0.00 0.00 0.00 0.01 0.01 0.01 0.01 0.01 0.02 0.02 0.03 0.01 0.02 0.09 0.15 0.13 0.14 0.10 0.06 0.04 0.02 0.01 0.01 0.00 0.00 0.01 0.01 0.01 0.01 0.02 0.03
0.00 0.02 0.04 0.04 0.08 0.05 0.12 0.13 0.02 0.04 0.02 0.06 0.01 0.00 0.00 0.00 0.01 0.01 0.01 0.01 0.02 0.02 0.03 0.04 0.01 0.04 0.11 0.15 0.14 0.08 0.04 0.04 0.04 0.01 0.01 0.01 0.01 0.01 0.01 0.01 0.02 0.02 0.03
0.02 0.02 0.02 0.02 0.09 0.13 0.09 0.04 0.02 0.02 0.03 0.04 0.03 0.01 0.00 0.00 0.01 0.01 0.01 0.01 0.00 0.01 0.01 0.04 0.03 0.01 0.03 0.07 0.13 0.14 0.09 0.03 0.03 0.05 0.03 0.02 0.03 0.02 0.02 0.01 0.00 0.00 0.00
0.03 0.04 0.04 0.04 0.05 0.05 0.05 0.05 0.05 0.03 0.07 0.08 0.05 0.02 0.01 0.01 0.01 0.01 0.01 0.01 0.00 0.00 0.00 0.02 0.04 0.02 0.01 0.02 0.05 0.06 0.09 0.05 0.02 0.03 0.03 0.01 0.02 0.03 0.02 0.02 0.00 0.00 0.00
0.04 0.05 0.06 0.06 0.06 0.06 0.04 0.10 0.11 0.09 0.05 0.06 0.02 0.01 0.01 0.01 0.01 0.01 0.02 0.02 0.01 0.01 0.00 0.01 0.02 0.02 0.01 0.04 0.04 0.03 0.04 0.08 0.05 0.05 0.07 0.04 0.01 0.01 0.01 0.01 0.01 0.01 0.02
0.05 0.07 0.07 0.07 0.07 0.08 0.08 0.13 0.13 0.11 0.07 0.08 0.07 0.04 0.01 0.01 0.01 0.01 0.01 0.01 0.01 0.01 0.01 0.01 0.01 0.01 0.01 0.01 0.02 0.03 0.06 0.08 0.10 0.10 0.09 0.10 0.11 0.11 0.11 0.10 0.09 0.12 0.10
0.09 0.09 0.09 0.08 0.09 0.07 0.08 0.12 0.15 0.11 0.07 0.04 0.03 0.02 0.02 0.01 0.01 0.01 0.01 0.01 0.01 0.01 0.02 0.02 0.02 0.01 0.01 0.03 0.01 0.00 0.01 0.03 0.05 0.09 0.09 0.03 0.02 0.01 0.04 0.03 0.02 0.04 0.05
0.13 0.12 0.13 0.11 0.11 0.09 0.07 0.11 0.13 0.11 0.09 0.06 0.04 0.03 0.04 0.03 0.02 0.02 0.01 0.02 0.02 0.01 0.01 0.02 0.02 0.02 0.02 0.04 0.01 0.00 0.00 0.00 0.00 0.01 0.01 0.01 0.03 0.08 0.01 0.05 0.05 0.05 0.09
0.31 0.18 0.14 0.13 0.10 0.10 0.08 0.10 0.12 0.14 0.12 0.07 0.06 0.05 0.05 0.07 0.05 0.05 0.07 0.06 0.05 0.04 0.03 0.03 0.02 0.01 0.03 0.04 0.02 0.02 0.01 0.00 0.01 0.02 0.02 0.02 0.03 0.08 0.08 0.03 0.07 0.10 0.13
0.31 0.65 0.34 0.16 0.16 0.09 0.06 0.08 0.10 0.12 0.14 0.16 0.10 0.07 0.04 0.06 0.08 0.06 0.04 0.05 0.08 0.09 0.07 0.05 0.03 0.02 0.03 0.05 0.03 0.03 0.00 0.01 0.03 0.02 0.01 0.01 0.01 0.03 0.02 0.00 0.00 0.01 0.03
0.27 0.34 0.66 0.59 0.40 0.29 0.11 0.05 0.08 0.08 0.12 0.09 0.10 0.08 0.09 0.04 0.02 0.02 0.02 0.01 0.01 0.03 0.06 0.03 0.01 0.01 0.00 0.01 0.00 0.00 0.00 0.00 0.00 0.00 0.00 0.00 0.00 0.00 0.00 0.00 0.00 0.00 0.00
0.24 0.30 0.26 0.37 0.56 0.58 0.57 0.35 0.13 0.08 0.06 0.12 0.09 0.10 0.12 0.11 0.04 0.01 0.01 0.00 0.00 0.00 0.00 0.00 0.00 0.00 0.00 0.00 0.00 0.00 0.00 0.00 0.00 0.00 0.00 0.00 0.00 0.00 0.00 0.00 0.00 0.00 0.00
0.18 0.16 0.21 0.17 0.16 0.16 0.22 0.43 0.47 0.35 0.22 0.13 0.11 0.09 0.05 0.10 0.13 0.04 0.01 0.01 0.01 0.00 0.00 0.00 0.00 0.00 0.00 0.00 0.00 0.00 0.00 0.00 0.00 0.00 0.00 0.00 0.00 0.00 0.00 0.00 0.00 0.00 0.00
0.08 0.03 0.05 0.02 0.01 0.01 0.02 0.02 0.05 0.15 0.21 0.23 0.23 0.17 0.12 0.07 0.04 0.03 0.02 0.02 0.01 0.01 0.01 0.00 0.01 0.01 0.00 0.00 0.00 0.00 0.00 0.00 0.00 0.00 0.00 0.00 0.00 0.00 0.00 0.00 0.00 0.00 0.00
0.08 0.01 0.00 0.00 0.00 0.00 0.00 0.00 0.00 0.00 0.00 0.00 0.00 0.00 0.01 0.02 0.02 0.03 0.03 0.03 0.04 0.04 0.05 0.05 0.04 0.02 0.01 0.01 0.00 0.00 0.00 0.00 0.00 0.00 0.00 0.00 0.00 0.00 0.00 0.00 0.00 0.00 0.00
0.19 0.06 0.03 0.01 0.00 0.00 0.00 0.00 0.00 0.00 0.00 0.00 0.00 0.00 0.00 0.00 0.00 0.00 0.00 0.00 0.01 0.01 0.01 0.01 0.01 0.01 0.01 0.01 0.00 0.00 0.00 0.00 0.00 0.00 0.00 0.00 0.00 0.00 0.00 0.00 0.00 0.00 0.00
0.16 0.11 0.08 0.05 0.01 0.00 0.00 0.00 0.00 0.00 0.00 0.00 0.00 0.00 0.00 0.00 0.00 0.00 0.00 0.00 0.00 0.00 0.00 0.01 0.01 0.01 0.01 0.00 0.00 0.00 0.00 0.00 0.00 0.00 0.00 0.00 0.00 0.00 0.00 0.00 0.00 0.00 0.00

GFSMW_prec_precacc6_087.txt.gz
Total_Precipitation_Accumulation
0.00 0.00 0.00 0.00 0.00 0.00 0.00 0.00 0.00 0.03 0.02 0.00 0.00 0.00 0.00 0.00 0.00 0.00 0.00 0.01 0.02 0.07 0.11 0.07 0.06 0.04 0.02 0.03 0.19 0.38 0.41 0.53 0.34 0.10 0.02 0.00 0.00 0.00 0.00 0.00 0.00 0.00 0.00
0.00 0.00 0.00 0.00 0.00 0.00 0.00 0.00 0.00 0.02 0.00 0.00 0.00 0.00 0.00 0.00 0.00 0.00 0.00 0.00 0.01 0.03 0.06 0.05 0.06 0.08 0.05 0.02 0.21 0.30 0.34 0.38 0.19 0.04 0.00 0.01 0.01 0.00 0.00 0.00 0.00 0.00 0.00
0.00 0.00 0.00 0.00 0.00 0.00 0.00 0.00 0.01 0.01 0.00 0.00 0.00 0.00 0.00 0.00 0.00 0.01 0.02 0.00 0.01 0.02 0.05 0.13 0.15 0.09 0.13 0.09 0.12 0.20 0.16 0.21 0.16 0.01 0.00 0.00 0.01 0.00 0.00 0.00 0.00 0.00 0.00
0.00 0.00 0.00 0.00 0.00 0.00 0.00 0.00 0.01 0.02 0.00 0.00 0.00 0.00 0.00 0.00 0.00 0.00 0.01 0.01 0.02 0.05 0.05 0.01 0.03 0.08 0.11 0.20 0.19 0.18 0.17 0.14 0.16 0.03 0.00 0.00 0.00 0.00 0.00 0.01 0.00 0.00 0.00
0.00 0.00 0.00 0.00 0.00 0.00 0.00 0.00 0.05 0.04 0.00 0.00 0.00 0.00 0.00 0.00 0.00 0.00 0.01 0.01 0.01 0.02 0.02 0.01 0.04 0.12 0.13 0.17 0.22 0.21 0.20 0.12 0.12 0.03 0.01 0.00 0.00 0.00 0.00 0.00 0.00 0.00 0.00
0.00 0.00 0.00 0.00 0.00 0.00 0.00 0.00 0.03 0.03 0.00 0.00 0.00 0.00 0.00 0.00 0.00 0.00 0.01 0.01 0.01 0.00 0.01 0.03 0.06 0.13 0.13 0.17 0.27 0.21 0.17 0.13 0.11 0.06 0.02 0.00 0.00 0.00 0.00 0.01 0.01 0.00 0.00
0.00 0.00 0.00 0.00 0.00 0.02 0.02 0.00 0.02 0.02 0.00 0.00 0.00 0.00 0.00 0.00 0.00 0.00 0.01 0.01 0.00 0.00 0.00 0.03 0.11 0.16 0.19 0.21 0.29 0.32 0.22 0.14 0.09 0.05 0.04 0.02 0.00 0.00 0.01 0.01 0.01 0.01 0.00
0.01 0.00 0.00 0.00 0.00 0.00 0.02 0.02 0.05 0.04 0.02 0.01 0.00 0.00 0.00 0.00 0.00 0.01 0.00 0.00 0.00 0.00 0.00 0.00 0.09 0.15 0.29 0.34 0.23 0.24 0.19 0.14 0.09 0.06 0.04 0.03 0.02 0.02 0.01 0.01 0.01 0.01 0.01
0.02 0.02 0.00 0.00 0.01 0.04 0.07 0.05 0.06 0.06 0.05 0.05 0.01 0.01 0.01 0.00 0.00 0.01 0.01 0.01 0.00 0.00 0.00 0.00 0.02 0.09 0.18 0.33 0.21 0.16 0.14 0.12 0.09 0.07 0.05 0.04 0.04 0.04 0.01 0.01 0.01 0.02 0.02
0.00 0.01 0.03 0.05 0.10 0.43 0.62 0.52 0.28 0.15 0.06 0.06 0.04 0.02 0.02 0.00 0.00 0.01 0.01 0.01 0.01 0.01 0.01 0.00 0.01 0.03 0.11 0.19 0.30 0.20 0.15 0.13 0.08 0.06 0.05 0.03 0.02 0.00 0.01 0.00 0.00 0.01 0.01
0.00 0.02 0.06 0.10 0.22 0.29 0.38 0.41 0.33 0.23 0.04 0.06 0.05 0.04 0.03 0.01 0.01 0.01 0.01 0.01 0.01 0.00 0.01 0.01 0.00 0.02 0.07 0.15 0.27 0.30 0.12 0.12 0.11 0.06 0.05 0.03 0.02 0.01 0.01 0.01 0.01 0.01 0.02
0.00 0.00 0.02 0.04 0.16 0.25 0.27 0.24 0.22 0.21 0.09 0.02 0.09 0.12 0.04 0.01 0.01 0.01 0.01 0.01 0.01 0.01 0.00 0.01 0.01 0.00 0.02 0.09 0.19 0.27 0.18 0.07 0.09 0.14 0.09 0.06 0.04 0.03 0.04 0.02 0.01 0.01 0.01
0.00 0.02 0.02 0.02 0.05 0.06 0.08 0.05 0.09 0.13 0.10 0.07 0.12 0.11 0.10 0.02 0.02 0.01 0.01 0.01 0.00 0.00 0.00 0.01 0.02 0.01 0.00 0.04 0.13 0.16 0.15 0.15 0.07 0.12 0.14 0.09 0.06 0.05 0.06 0.06 0.04 0.02 0.01
0.00 0.02 0.03 0.03 0.04 0.05 0.04 0.08 0.09 0.11 0.07 0.09 0.11 0.09 0.08 0.02 0.01 0.01 0.01 0.01 0.01 0.00 0.00 0.01 0.06 0.05 0.01 0.05 0.09 0.09 0.10 0.18 0.17 0.09 0.12 0.10 0.08 0.03 0.01 0.01 0.01 0.00 0.00
0.00 0.02 0.04 0.05 0.05 0.06 0.06 0.11 0.12 0.12 0.09 0.12 0.17 0.14 0.07 0.03 0.02 0.01 0.01 0.01 0.01 0.00 0.00 0.00 0.02 0.05 0.02 0.02 0.04 0.06 0.08 0.09 0.19 0.21 0.15 0.10 0.11 0.09 0.06 0.03 0.01 0.01 0.01
0.01 0.02 0.05 0.05 0.06 0.06 0.06 0.08 0.12 0.13 0.09 0.05 0.07 0.05 0.03 0.02 0.01 0.02 0.02 0.01 0.02 0.02 0.02 0.02 0.02 0.02 0.02 0.04 0.03 0.02 0.02 0.04 0.09 0.13 0.15 0.11 0.07 0.03 0.05 0.06 0.06 0.04 0.03
0.06 0.04 0.05 0.07 0.07 0.08 0.07 0.07 0.10 0.10 0.14 0.10 0.04 0.05 0.04 0.03 0.02 0.03 0.02 0.02 0.01 0.02 0.02 0.03 0.03 0.03 0.02 0.04 0.03 0.03 0.00 0.01 0.02 0.02 0.04 0.06 0.09 0.07 0.01 0.04 0.04 0.05 0.07
0.05 0.12 0.11 0.13 0.11 0.10 0.10 0.11 0.10 0.14 0.13 0.12 0.12 0.06 0.07 0.07 0.05 0.05 0.07 0.07 0.04 0.02 0.02 0.01 0.02 0.01 0.03 0.04 0.03 0.03 0.01 0.01 0.02 0.02 0.02 0.03 0.04 0.07 0.07 0.03 0.07 0.09 0.10
0.07 0.17 0.22 0.16 0.20 0.16 0.14 0.14 0.16 0.17 0.21 0.25 0.21 0.16 0.12 0.09 0.12 0.11 0.08 0.09 0.11 0.11 0.09 0.07 0.04 0.03 0.04 0.08 0.05 0.04 0.00 0.02 0.04 0.03 0.03 0.03 0.03 0.08 0.06 0.02 0.01 0.02 0.01
0.11 0.13 0.27 0.38 0.32 0.35 0.26 0.18 0.18 0.18 0.25 0.27 0.25 0.22 0.24 0.17 0.11 0.11 0.12 0.11 0.09 0.09 0.12 0.14 0.13 0.11 0.06 0.08 0.06 0.03 0.00 0.00 0.00 0.00 0.00 0.01 0.00 0.01 0.00 0.00 0.00 0.00 0.00
0.10 0.11 0.14 0.30 0.51 0.55 0.60 0.45 0.30 0.26 0.26 0.32 0.39 0.38 0.35 0.30 0.24 0.13 0.08 0.08 0.06 0.05 0.04 0.05 0.07 0.07 0.04 0.02 0.02 0.02 0.01 0.00 0.00 0.00 0.00 0.00 0.00 0.00 0.00 0.00 0.00 0.00 0.00
0.09 0.11 0.13 0.16 0.19 0.20 0.29 0.57 0.68 0.57 0.44 0.36 0.33 0.42 0.40 0.43 0.45 0.39 0.30 0.16 0.07 0.03 0.01 0.01 0.01 0.02 0.04 0.03 0.01 0.00 0.00 0.00 0.00 0.00 0.00 0.00 0.00 0.00 0.00 0.00 0.00 0.00 0.00
0.06 0.05 0.07 0.04 0.02 0.03 0.05 0.09 0.17 0.36 0.43 0.44 0.48 0.41 0.40 0.38 0.29 0.26 0.31 0.33 0.29 0.17 0.05 0.02 0.01 0.02 0.01 0.01 0.01 0.00 0.00 0.00 0.00 0.00 0.00 0.00 0.00 0.00 0.00 0.00 0.00 0.00 0.00
0.10 0.04 0.01 0.00 0.00 0.00 0.00 0.01 0.01 0.01 0.04 0.06 0.07 0.09 0.12 0.13 0.14 0.15 0.14 0.13 0.15 0.15 0.14 0.10 0.07 0.06 0.06 0.05 0.04 0.03 0.02 0.01 0.00 0.00 0.00 0.00 0.00 0.00 0.00 0.00 0.00 0.00 0.00
0.15 0.09 0.06 0.04 0.04 0.01 0.00 0.00 0.00 0.00 0.00 0.00 0.00 0.00 0.00 0.01 0.02 0.02 0.01 0.02 0.02 0.01 0.01 0.01 0.01 0.01 0.02 0.02 0.01 0.02 0.01 0.01 0.00 0.00 0.00 0.00 0.00 0.00 0.00 0.00 0.00 0.00 0.00
0.13 0.13 0.12 0.09 0.03 0.01 0.01 0.01 0.00 0.00 0.00 0.00 0.00 0.00 0.00 0.00 0.00 0.00 0.00 0.00 0.00 0.00 0.00 0.00 0.00 0.00 0.00 0.00 0.00 0.00 0.00 0.00 0.00 0.00 0.00 0.00 0.00 0.00 0.00 0.00 0.00 0.00 0.00

GFSMW_prec_precacc6_090.txt.gz
Total_Precipitation_Accumulation
0.00 0.00 0.00 0.00 0.00 0.00 0.00 0.00 0.01 0.04 0.07 0.03 0.04 0.03 0.00 0.00 0.00 0.00 0.00 0.00 0.01 0.03 0.04 0.03 0.03 0.03 0.05 0.07 0.05 0.12 0.23 0.37 0.51 0.46 0.34 0.07 0.00 0.00 0.00 0.00 0.00 0.00 0.00
0.00 0.00 0.00 0.00 0.00 0.00 0.00 0.00 0.00 0.02 0.01 0.02 0.03 0.00 0.01 0.00 0.00 0.00 0.00 0.00 0.00 0.02 0.03 0.03 0.04 0.06 0.05 0.02 0.02 0.09 0.23 0.33 0.38 0.37 0.20 0.09 0.03 0.00 0.00 0.00 0.00 0.00 0.00
0.00 0.00 0.00 0.00 0.00 0.00 0.00 0.00 0.01 0.02 0.01 0.01 0.02 0.01 0.01 0.00 0.00 0.00 0.00 0.00 0.00 0.00 0.01 0.01 0.02 0.04 0.07 0.08 0.04 0.03 0.08 0.23 0.27 0.14 0.12 0.03 0.01 0.00 0.00 0.00 0.00 0.00 0.00
0.00 0.00 0.00 0.00 0.00 0.00 0.00 0.00 0.01 0.01 0.01 0.02 0.02 0.00 0.00 0.00 0.00 0.00 0.00 0.00 0.00 0.01 0.00 0.00 0.00 0.01 0.03 0.10 0.11 0.06 0.08 0.12 0.23 0.12 0.07 0.01 0.01 0.01 0.00 0.00 0.00 0.00 0.00
0.00 0.00 0.00 0.00 0.00 0.00 0.00 0.00 0.05 0.04 0.01 0.03 0.01 0.00 0.00 0.00 0.00 0.00 0.00 0.01 0.01 0.01 0.01 0.00 0.00 0.01 0.01 0.04 0.12 0.17 0.17 0.11 0.14 0.08 0.03 0.01 0.01 0.00 0.00 0.00 0.00 0.00 0.00
0.00 0.00 0.00 0.00 0.00 0.08 0.04 0.00 0.02 0.02 0.05 0.03 0.01 0.00 0.00 0.00 0.00 0.00 0.00 0.01 0.01 0.01 0.01 0.00 0.00 0.00 0.02 0.04 0.08 0.17 0.19 0.17 0.15 0.12 0.04 0.01 0.01 0.00 0.00 0.00 0.00 0.00 0.00
0.02 0.00 0.00 0.00 0.00 0.05 0.17 0.12 0.10 0.04 0.02 0.02 0.02 0.00 0.00 0.00 0.00 0.00 0.00 0.00 0.01 0.01 0.01 0.01 0.00 0.00 0.04 0.10 0.13 0.19 0.30 0.23 0.15 0.13 0.07 0.03 0.01 0.00 0.01 0.00 0.00 0.00 0.00
0.02 0.02 0.01 0.00 0.00 0.00 0.06 0.14 0.27 0.14 0.07 0.05 0.02 0.01 0.00 0.00 0.00 0.00 0.00 0.00 0.00 0.00 0.00 0.00 0.00 0.02 0.10 0.20 0.20 0.26 0.28 0.34 0.20 0.14 0.12 0.07 0.04 0.02 0.01 0.00 0.00 0.00 0.01
0.03 0.02 0.01 0.00 0.01 0.04 0.20 0.15 0.13 0.11 0.12 0.10 0.05 0.02 0.01 0.00 0.00 0.00 0.00 0.00 0.00 0.00 0.00 0.00 0.00 0.03 0.12 0.20 0.39 0.32 0.31 0.30 0.26 0.17 0.12 0.07 0.06 0.04 0.02 0.01 0.01 0.01 0.00
0.00 0.00 0.01 0.06 0.13 0.44 0.67 0.69 0.62 0.38 0.27 0.18 0.08 0.04 0.03 0.00 0.01 0.00 0.01 0.00 0.00 0.00 0.00 0.00 0.00 0.00 0.06 0.16 0.39 0.33 0.24 0.25 0.25 0.20 0.17 0.08 0.05 0.03 0.01 0.00 0.00 0.00 0.01
0.00 0.00 0.03 0.10 0.21 0.35 0.48 0.62 0.74 0.63 0.43 0.33 0.17 0.06 0.04 0.03 0.02 0.01 0.01 0.01 0.00 0.00 0.00 0.00 0.00 0.00 0.03 0.13 0.32 0.47 0.26 0.24 0.24 0.19 0.15 0.13 0.08 0.04 0.02 0.01 0.01 0.01 0.01
0.00 0.00 0.01 0.03 0.12 0.22 0.42 0.57 0.78 1.04 0.65 0.29 0.19 0.15 0.07 0.08 0.03 0.01 0.02 0.01 0.01 0.01 0.00 0.00 0.00 0.00 0.01 0.09 0.25 0.40 0.32 0.22 0.25 0.25 0.17 0.14 0.12 0.09 0.06 0.04 0.02 0.01 0.01
0.00 0.00 0.00 0.00 0.03 0.04 0.13 0.20 0.42 0.52 0.53 0.44 0.22 0.13 0.13 0.08 0.02 0.01 0.01 0.02 0.02 0.01 0.01 0.00 0.00 0.00 0.00 0.05 0.24 0.30 0.32 0.25 0.20 0.27 0.24 0.19 0.13 0.12 0.08 0.06 0.05 0.03 0.02
0.00 0.01 0.01 0.00 0.00 0.01 0.02 0.03 0.14 0.16 0.17 0.36 0.27 0.16 0.11 0.05 0.02 0.01 0.01 0.01 0.01 0.01 0.00 0.00 0.04 0.03 0.00 0.05 0.11 0.17 0.24 0.30 0.28 0.19 0.23 0.26 0.21 0.10 0.04 0.03 0.03 0.04 0.05
0.00 0.00 0.01 0.01 0.01 0.02 0.02 0.04 0.08 0.18 0.17 0.26 0.33 0.18 0.10 0.06 0.03 0.02 0.01 0.01 0.01 0.00 0.00 0.00 0.02 0.05 0.01 0.02 0.04 0.07 0.09 0.24 0.37 0.34 0.26 0.15 0.15 0.13 0.09 0.07 0.04 0.02 0.02
0.00 0.00 0.00 0.01 0.02 0.02 0.02 0.03 0.07 0.11 0.15 0.10 0.13 0.12 0.07 0.05 0.02 0.02 0.02 0.02 0.02 0.02 0.02 0.01 0.02 0.03 0.02 0.05 0.05 0.04 0.05 0.06 0.10 0.11 0.11 0.12 0.09 0.04 0.04 0.05 0.06 0.04 0.03
0.00 0.01 0.01 0.01 0.03 0.05 0.04 0.04 0.06 0.10 0.16 0.17 0.11 0.08 0.07 0.05 0.02 0.02 0.04 0.04 0.03 0.03 0.03 0.03 0.03 0.03 0.03 0.05 0.04 0.03 0.02 0.04 0.03 0.03 0.05 0.07 0.10 0.08 0.02 0.03 0.02 0.02 0.04
0.01 0.02 0.05 0.05 0.06 0.09 0.10 0.08 0.06 0.10 0.15 0.16 0.18 0.09 0.04 0.04 0.03 0.02 0.04 0.06 0.04 0.03 0.03 0.02 0.03 0.02 0.03 0.05 0.06 0.06 0.01 0.01 0.01 0.01 0.01 0.02 0.03 0.05 0.07 0.05 0.04 0.05 0.06
0.02 0.02 0.04 0.04 0.10 0.15 0.16 0.12 0.12 0.11 0.14 0.22 0.23 0.27 0.28 0.18 0.11 0.08 0.07 0.06 0.05 0.05 0.05 0.05 0.04 0.02 0.02 0.05 0.05 0.05 0.01 0.02 0.02 0.02 0.03 0.03 0.02 0.08 0.06 0.02 0.02 0.02 0.02
0.03 0.02 0.03 0.05 0.08 0.23 0.26 0.21 0.18 0.17 0.17 0.25 0.28 0.33 0.38 0.40 0.33 0.25 0.20 0.16 0.14 0.10 0.10 0.16 0.16 0.16 0.08 0.13 0.11 0.08 0.03 0.04 0.02 0.02 0.03 0.05 0.02 0.04 0.02 0.01 0.00 0.00 0.00
0.02 0.02 0.02 0.04 0.07 0.12 0.23 0.31 0.34 0.31 0.33 0.30 0.39 0.43 0.45 0.48 0.49 0.32 0.25 0.22 0.18 0.17 0.15 0.15 0.17 0.16 0.15 0.18 0.16 0.14 0.09 0.08 0.06 0.06 0.05 0.04 0.03 0.01 0.01 0.00 0.00 0.00 0.00
0.03 0.02 0.02 0.04 0.07 0.06 0.10 0.20 0.31 0.40 0.41 0.40 0.34 0.45 0.52 0.54 0.61 0.70 0.59 0.37 0.24 0.18 0.14 0.11 0.11 0.10 0.13 0.14 0.15 0.08 0.03 0.03 0.02 0.01 0.01 0.00 0.00 0.00 0.00 0.00 0.00 0.00 0.00
0.03 0.02 0.03 0.02 0.02 0.04 0.06 0.11 0.19 0.28 0.30 0.31 0.36 0.34 0.37 0.44 0.44 0.47 0.57 0.64 0.60 0.43 0.25 0.13 0.08 0.06 0.05 0.05 0.04 0.05 0.05 0.04 0.03 0.01 0.00 0.00 0.00 0.00 0.00 0.00 0.00 0.00 0.00
0.06 0.04 0.01 0.00 0.01 0.03 0.04 0.03 0.02 0.03 0.06 0.08 0.11 0.15 0.19 0.20 0.21 0.23 0.26 0.27 0.31 0.35 0.37 0.34 0.27 0.20 0.14 0.10 0.08 0.05 0.03 0.02 0.02 0.02 0.01 0.01 0.00 0.00 0.00 0.00 0.00 0.00 0.00
0.06 0.05 0.04 0.05 0.06 0.03 0.02 0.03 0.03 0.01 0.01 0.01 0.02 0.03 0.05 0.08 0.09 0.09 0.09 0.10 0.11 0.10 0.10 0.12 0.13 0.15 0.15 0.15 0.10 0.07 0.04 0.02 0.02 0.01 0.01 0.00 0.00 0.00 0.00 0.00 0.00 0.00 0.00
0.05 0.05 0.06 0.07 0.06 0.03 0.03 0.03 0.01 0.00 0.00 0.00 0.00 0.00 0.00 0.00 0.00 0.00 0.01 0.00 0.00 0.00 0.00 0.00 0.00 0.00 0.00 0.00 0.00 0.00 0.00 0.00 0.00 0.00 0.00 0.00 0.00 0.00 0.00 0.00 0.00 0.00 0.00

GFSMW_prec_precacc6_093.txt.gz
Total_Precipitation_Accumulation
0.00 0.00 0.00 0.00 0.00 0.00 0.00 0.00 0.01 0.02 0.05 0.05 0.06 0.05 0.00 0.01 0.02 0.00 0.00 0.00 0.00 0.00 0.00 0.00 0.00 0.01 0.04 0.08 0.05 0.04 0.03 0.04 0.23 0.42 0.43 0.32 0.15 0.06 0.04 0.01 0.00 0.00 0.00
0.00 0.00 0.00 0.00 0.00 0.00 0.00 0.00 0.00 0.00 0.01 0.02 0.05 0.06 0.10 0.10 0.08 0.02 0.00 0.00 0.00 0.00 0.01 0.01 0.02 0.03 0.05 0.02 0.03 0.04 0.02 0.08 0.24 0.35 0.32 0.36 0.33 0.21 0.05 0.01 0.00 0.00 0.00
0.00 0.00 0.00 0.00 0.00 0.00 0.00 0.00 0.00 0.00 0.01 0.01 0.03 0.06 0.10 0.07 0.12 0.02 0.00 0.00 0.00 0.00 0.00 0.01 0.02 0.04 0.07 0.06 0.04 0.04 0.02 0.08 0.16 0.14 0.22 0.19 0.17 0.10 0.04 0.01 0.00 0.00 0.00
0.00 0.00 0.00 0.00 0.00 0.00 0.00 0.00 0.00 0.00 0.01 0.02 0.02 0.02 0.01 0.00 0.00 0.00 0.00 0.00 0.00 0.00 0.01 0.01 0.02 0.02 0.03 0.05 0.05 0.06 0.06 0.06 0.09 0.12 0.17 0.06 0.05 0.05 0.10 0.07 0.01 0.00 0.00
0.00 0.00 0.00 0.00 0.00 0.00 0.00 0.00 0.00 0.00 0.01 0.03 0.02 0.03 0.02 0.03 0.06 0.03 0.00 0.00 0.00 0.00 0.01 0.01 0.01 0.01 0.01 0.03 0.03 0.08 0.09 0.07 0.06 0.06 0.11 0.12 0.08 0.13 0.13 0.12 0.04 0.00 0.00
0.01 0.00 0.00 0.00 0.00 0.08 0.04 0.00 0.00 0.01 0.05 0.03 0.04 0.04 0.02 0.05 0.04 0.02 0.00 0.00 0.00 0.01 0.01 0.01 0.01 0.01 0.01 0.02 0.02 0.08 0.12 0.12 0.11 0.13 0.06 0.07 0.10 0.10 0.10 0.05 0.01 0.00 0.00
0.02 0.01 0.01 0.01 0.00 0.03 0.17 0.13 0.11 0.03 0.02 0.02 0.04 0.05 0.07 0.04 0.04 0.02 0.00 0.00 0.00 0.01 0.01 0.01 0.01 0.01 0.01 0.03 0.05 0.05 0.18 0.19 0.16 0.20 0.11 0.04 0.05 0.08 0.10 0.07 0.02 0.00 0.00
0.03 0.02 0.02 0.03 0.01 0.00 0.08 0.20 0.27 0.21 0.16 0.14 0.15 0.12 0.06 0.02 0.02 0.01 0.00 0.00 0.00 0.00 0.00 0.01 0.01 0.01 0.02 0.07 0.13 0.17 0.18 0.31 0.27 0.24 0.22 0.09 0.06 0.06 0.04 0.02 0.05 0.03 0.00
0.07 0.02 0.02 0.05 0.03 0.01 0.17 0.20 0.15 0.07 0.15 0.22 0.19 0.16 0.07 0.02 0.01 0.00 0.00 0.00 0.00 0.00 0.00 0.00 0.00 0.00 0.03 0.09 0.32 0.29 0.28 0.31 0.37 0.29 0.24 0.13 0.08 0.05 0.03 0.02 0.02 0.02 0.01
0.01 0.00 0.01 0.07 0.09 0.08 0.18 0.33 0.46 0.38 0.31 0.27 0.23 0.21 0.12 0.08 0.02 0.00 0.00 0.00 0.00 0.00 0.00 0.00 0.00 0.00 0.02 0.07 0.24 0.33 0.32 0.39 0.40 0.40 0.35 0.22 0.12 0.08 0.02 0.01 0.01 0.01 0.01
0.00 0.00 0.01 0.05 0.12 0.16 0.30 0.42 0.62 0.79 0.69 0.52 0.37 0.28 0.15 0.11 0.06 0.02 0.00 0.00 0.00 0.00 0.00 0.00 0.00 0.00 0.00 0.05 0.17 0.35 0.31 0.38 0.40 0.36 0.35 0.27 0.16 0.09 0.04 0.02 0.03 0.02 0.01
0.00 0.00 0.00 0.02 0.09 0.17 0.30 0.43 0.67 1.06 0.89 0.56 0.40 0.27 0.16 0.13 0.05 0.01 0.01 0.01 0.00 0.00 0.00 0.00 0.00 0.00 0.00 0.05 0.18 0.38 0.49 0.41 0.39 0.36 0.30 0.29 0.22 0.15 0.09 0.06 0.05 0.05 0.03
0.00 0.00 0.00 0.00 0.02 0.05 0.17 0.26 0.50 0.70 0.68 0.78 0.47 0.30 0.16 0.10 0.03 0.01 0.01 0.02 0.01 0.01 0.01 0.00 0.00 0.00 0.00 0.03 0.18 0.29 0.49 0.44 0.35 0.35 0.37 0.32 0.25 0.22 0.17 0.11 0.09 0.06 0.04
0.00 0.00 0.00 0.00 0.00 0.01 0.04 0.09 0.39 0.40 0.20 0.62 0.72 0.48 0.18 0.07 0.02 0.01 0.01 0.00 0.01 0.01 0.01 0.01 0.00 0.00 0.00 0.04 0.09 0.17 0.32 0.40 0.39 0.40 0.43 0.40 0.31 0.21 0.17 0.14 0.11 0.10 0.08
0.00 0.00 0.00 0.00 0.00 0.00 0.00 0.01 0.05 0.34 0.34 0.41 0.88 0.88 0.33 0.08 0.02 0.01 0.01 0.01 0.00 0.00 0.01 0.01 0.01 0.01 0.00 0.01 0.05 0.10 0.17 0.37 0.41 0.35 0.37 0.23 0.21 0.22 0.18 0.17 0.13 0.07 0.07
0.00 0.00 0.00 0.00 0.00 0.00 0.00 0.01 0.03 0.07 0.23 0.29 0.60 0.87 0.69 0.10 0.02 0.01 0.01 0.01 0.01 0.01 0.01 0.01 0.02 0.03 0.02 0.04 0.03 0.06 0.07 0.08 0.13 0.14 0.14 0.16 0.17 0.16 0.17 0.15 0.13 0.11 0.09
0.00 0.00 0.00 0.00 0.01 0.02 0.03 0.02 0.02 0.07 0.15 0.21 0.34 0.31 0.45 0.29 0.08 0.02 0.02 0.02 0.02 0.02 0.02 0.02 0.03 0.03 0.03 0.04 0.06 0.06 0.05 0.06 0.04 0.07 0.09 0.07 0.12 0.15 0.11 0.08 0.06 0.04 0.02
0.01 0.01 0.00 0.01 0.02 0.05 0.07 0.04 0.05 0.05 0.14 0.24 0.26 0.36 0.27 0.27 0.08 0.05 0.03 0.05 0.03 0.03 0.03 0.03 0.03 0.03 0.04 0.05 0.08 0.07 0.02 0.03 0.05 0.04 0.03 0.03 0.04 0.09 0.10 0.06 0.02 0.01 0.01
0.02 0.02 0.01 0.01 0.03 0.06 0.09 0.08 0.07 0.06 0.07 0.15 0.32 0.40 0.37 0.31 0.15 0.10 0.07 0.05 0.03 0.02 0.03 0.04 0.04 0.03 0.04 0.05 0.06 0.06 0.01 0.01 0.02 0.03 0.03 0.03 0.01 0.04 0.04 0.01 0.03 0.04 0.05
0.01 0.01 0.01 0.01 0.02 0.06 0.09 0.10 0.11 0.09 0.10 0.11 0.19 0.31 0.38 0.45 0.53 0.40 0.20 0.12 0.11 0.08 0.05 0.06 0.05 0.08 0.04 0.09 0.10 0.09 0.05 0.06 0.03 0.03 0.06 0.08 0.05 0.07 0.04 0.02 0.01 0.03 0.05
0.01 0.01 0.01 0.01 0.02 0.02 0.04 0.10 0.17 0.18 0.20 0.18 0.15 0.20 0.31 0.44 0.45 0.44 0.43 0.37 0.28 0.24 0.20 0.16 0.14 0.13 0.15 0.21 0.21 0.20 0.15 0.16 0.14 0.09 0.09 0.13 0.12 0.07 0.06 0.05 0.03 0.03 0.01
0.01 0.00 0.01 0.02 0.03 0.02 0.02 0.04 0.08 0.17 0.20 0.22 0.20 0.19 0.21 0.26 0.38 0.49 0.48 0.43 0.42 0.38 0.30 0.25 0.23 0.22 0.27 0.29 0.29 0.21 0.16 0.15 0.10 0.09 0.07 0.06 0.05 0.03 0.02 0.01 0.00 0.00 0.00
0.01 0.00 0.01 0.01 0.02 0.03 0.02 0.04 0.08 0.08 0.10 0.13 0.15 0.16 0.16 0.18 0.23 0.29 0.36 0.43 0.46 0.44 0.38 0.26 0.20 0.19 0.19 0.24 0.26 0.27 0.24 0.18 0.12 0.09 0.05 0.02 0.01 0.00 0.00 0.00 0.00 0.00 0.00
0.02 0.01 0.00 0.00 0.02 0.04 0.05 0.03 0.01 0.02 0.03 0.05 0.08 0.11 0.13 0.14 0.14 0.15 0.18 0.21 0.28 0.33 0.41 0.42 0.38 0.31 0.24 0.20 0.16 0.12 0.09 0.08 0.08 0.07 0.06 0.05 0.03 0.02 0.01 0.00 0.00 0.00 0.00
0.02 0.02 0.02 0.02 0.03 0.03 0.03 0.05 0.04 0.01 0.01 0.03 0.05 0.07 0.09 0.11 0.12 0.13 0.13 0.13 0.16 0.16 0.18 0.23 0.26 0.29 0.30 0.30 0.25 0.20 0.17 0.15 0.13 0.10 0.08 0.06 0.05 0.05 0.04 0.03 0.02 0.01 0.00
0.02 0.02 0.02 0.03 0.04 0.02 0.03 0.03 0.02 0.02 0.01 0.01 0.01 0.01 0.01 0.01 0.03 0.03 0.04 0.04 0.03 0.03 0.02 0.02 0.03 0.05 0.06 0.06 0.06 0.05 0.05 0.04 0.04 0.03 0.03 0.03 0.02 0.02 0.01 0.00 0.00 0.00 0.00

GFSMW_prec_precacc6_099.txt.gz
Total_Precipitation_Accumulation
0.00 0.00 0.00 0.00 0.00 0.00 0.00 0.00 0.00 0.00 0.00 0.01 0.01 0.02 0.01 0.01 0.02 0.03 0.09 0.02 0.00 0.00 0.00 0.00 0.00 0.01 0.01 0.01 0.01 0.01 0.00 0.00 0.00 0.01 0.02 0.02 0.04 0.13 0.28 0.30 0.15 0.11 0.09
0.00 0.00 0.00 0.00 0.00 0.00 0.00 0.00 0.00 0.00 0.00 0.00 0.00 0.00 0.00 0.01 0.14 0.16 0.20 0.13 0.02 0.00 0.00 0.00 0.00 0.00 0.01 0.00 0.01 0.01 0.02 0.01 0.00 0.01 0.01 0.04 0.09 0.19 0.26 0.25 0.19 0.07 0.05
0.00 0.00 0.00 0.00 0.00 0.00 0.00 0.00 0.00 0.00 0.00 0.00 0.00 0.01 0.06 0.13 0.23 0.27 0.24 0.22 0.19 0.12 0.07 0.02 0.01 0.00 0.01 0.01 0.01 0.03 0.05 0.03 0.03 0.01 0.02 0.01 0.03 0.09 0.24 0.26 0.17 0.16 0.08
0.00 0.00 0.00 0.00 0.00 0.00 0.00 0.00 0.00 0.00 0.00 0.00 0.00 0.00 0.00 0.00 0.00 0.04 0.17 0.25 0.48 0.57 0.45 0.20 0.09 0.03 0.00 0.01 0.02 0.03 0.07 0.11 0.07 0.06 0.02 0.01 0.01 0.03 0.08 0.17 0.24 0.16 0.10
0.00 0.00 0.00 0.00 0.00 0.00 0.00 0.00 0.00 0.00 0.00 0.00 0.00 0.00 0.00 0.00 0.00 0.00 0.04 0.07 0.20 0.23 0.43 0.42 0.19 0.07 0.02 0.01 0.02 0.03 0.05 0.07 0.09 0.06 0.03 0.02 0.01 0.02 0.04 0.12 0.19 0.22 0.12
0.00 0.00 0.00 0.00 0.00 0.00 0.00 0.00 0.00 0.00 0.00 0.00 0.00 0.00 0.00 0.00 0.00 0.00 0.01 0.01 0.01 0.04 0.04 0.04 0.05 0.05 0.02 0.01 0.02 0.03 0.05 0.05 0.06 0.09 0.08 0.04 0.03 0.03 0.09 0.16 0.19 0.22 0.20
0.00 0.00 0.00 0.00 0.00 0.00 0.00 0.00 0.00 0.00 0.00 0.01 0.01 0.01 0.01 0.01 0.01 0.01 0.02 0.03 0.00 0.02 0.01 0.01 0.02 0.02 0.01 0.01 0.02 0.02 0.04 0.04 0.06 0.05 0.07 0.09 0.06 0.05 0.12 0.20 0.26 0.26 0.20
0.00 0.00 0.00 0.00 0.01 0.01 0.01 0.02 0.04 0.03 0.03 0.04 0.05 0.08 0.12 0.14 0.12 0.11 0.13 0.06 0.01 0.02 0.05 0.01 0.03 0.02 0.01 0.02 0.03 0.03 0.03 0.03 0.03 0.03 0.03 0.06 0.09 0.09 0.09 0.13 0.18 0.24 0.20
0.00 0.02 0.03 0.03 0.03 0.03 0.03 0.05 0.06 0.07 0.09 0.14 0.10 0.12 0.16 0.22 0.22 0.24 0.29 0.25 0.14 0.11 0.12 0.03 0.03 0.03 0.02 0.02 0.02 0.03 0.03 0.04 0.04 0.04 0.04 0.06 0.06 0.11 0.16 0.12 0.07 0.10 0.18
0.01 0.02 0.02 0.03 0.03 0.04 0.04 0.11 0.12 0.12 0.16 0.22 0.21 0.21 0.19 0.15 0.19 0.22 0.28 0.26 0.23 0.16 0.10 0.04 0.02 0.02 0.02 0.02 0.02 0.02 0.03 0.06 0.09 0.11 0.11 0.10 0.08 0.09 0.13 0.14 0.08 0.06 0.07
0.00 0.00 0.00 0.00 0.00 0.03 0.05 0.07 0.15 0.24 0.25 0.22 0.33 0.30 0.24 0.17 0.15 0.18 0.14 0.22 0.16 0.16 0.04 0.02 0.01 0.01 0.01 0.01 0.02 0.02 0.03 0.08 0.18 0.22 0.20 0.16 0.15 0.22 0.20 0.16 0.12 0.09 0.07
0.00 0.00 0.00 0.00 0.01 0.04 0.04 0.06 0.12 0.29 0.24 0.14 0.19 0.14 0.20 0.27 0.15 0.13 0.10 0.06 0.06 0.03 0.01 0.01 0.01 0.01 0.01 0.01 0.01 0.01 0.03 0.07 0.10 0.20 0.32 0.36 0.23 0.19 0.22 0.22 0.17 0.10 0.09
0.00 0.00 0.00 0.00 0.00 0.05 0.07 0.05 0.06 0.17 0.22 0.18 0.21 0.24 0.24 0.23 0.17 0.10 0.08 0.04 0.01 0.01 0.00 0.00 0.00 0.00 0.00 0.00 0.00 0.00 0.05 0.14 0.20 0.17 0.25 0.28 0.31 0.25 0.16 0.15 0.18 0.17 0.13
0.00 0.00 0.00 0.00 0.00 0.01 0.05 0.06 0.07 0.12 0.14 0.16 0.16 0.21 0.44 0.44 0.24 0.15 0.08 0.05 0.02 0.00 0.00 0.00 0.01 0.00 0.00 0.01 0.01 0.01 0.02 0.09 0.21 0.25 0.23 0.32 0.30 0.29 0.21 0.17 0.18 0.20 0.17
0.00 0.00 0.00 0.00 0.00 0.00 0.01 0.02 0.08 0.21 0.24 0.20 0.17 0.25 0.47 0.56 0.61 0.48 0.27 0.05 0.01 0.00 0.00 0.00 0.00 0.00 0.00 0.00 0.01 0.04 0.04 0.05 0.13 0.22 0.29 0.34 0.43 0.41 0.35 0.25 0.25 0.22 0.17
0.01 0.00 0.00 0.00 0.00 0.00 0.01 0.01 0.01 0.02 0.11 0.21 0.19 0.27 0.93 0.84 0.87 0.97 0.92 0.38 0.04 0.01 0.00 0.00 0.00 0.00 0.00 0.01 0.01 0.02 0.05 0.07 0.11 0.17 0.29 0.48 0.50 0.52 0.54 0.51 0.44 0.38 0.25
0.01 0.00 0.00 0.01 0.01 0.01 0.02 0.04 0.06 0.02 0.03 0.12 0.35 0.50 0.50 1.08 0.89 1.00 1.00 0.95 0.22 0.03 0.03 0.01 0.00 0.00 0.00 0.01 0.01 0.02 0.02 0.05 0.04 0.06 0.15 0.30 0.59 0.61 0.47 0.55 0.57 0.55 0.47
0.01 0.00 0.01 0.01 0.01 0.00 0.00 0.03 0.05 0.05 0.02 0.04 0.17 0.26 0.23 0.64 1.12 0.82 0.76 0.66 0.28 0.05 0.02 0.01 0.00 0.00 0.00 0.02 0.02 0.05 0.02 0.07 0.09 0.05 0.06 0.13 0.25 0.53 0.56 0.50 0.54 0.49 0.41
0.02 0.02 0.02 0.02 0.01 0.00 0.00 0.01 0.02 0.06 0.05 0.09 0.11 0.21 0.35 0.48 0.72 0.99 0.79 0.65 0.36 0.07 0.02 0.00 0.00 0.00 0.00 0.02 0.03 0.03 0.01 0.02 0.05 0.08 0.09 0.09 0.06 0.14 0.27 0.24 0.24 0.25 0.26
0.02 0.02 0.02 0.01 0.01 0.00 0.00 0.00 0.01 0.02 0.03 0.07 0.08 0.10 0.20 0.35 0.48 0.70 0.87 0.76 0.55 0.22 0.10 0.04 0.01 0.02 0.00 0.02 0.03 0.03 0.01 0.03 0.03 0.03 0.06 0.11 0.09 0.11 0.10 0.09 0.12 0.14 0.16
0.03 0.02 0.01 0.02 0.02 0.01 0.00 0.00 0.00 0.02 0.04 0.04 0.03 0.02 0.02 0.09 0.24 0.38 0.48 0.61 0.63 0.44 0.22 0.16 0.12 0.08 0.08 0.05 0.04 0.05 0.02 0.03 0.04 0.06 0.05 0.07 0.09 0.06 0.08 0.07 0.04 0.09 0.08
0.02 0.01 0.01 0.01 0.01 0.00 0.00 0.00 0.02 0.03 0.01 0.01 0.01 0.01 0.01 0.01 0.03 0.06 0.15 0.23 0.31 0.44 0.45 0.30 0.27 0.22 0.21 0.21 0.15 0.12 0.11 0.09 0.07 0.11 0.11 0.16 0.16 0.13 0.10 0.08 0.11 0.09 0.04
0.02 0.01 0.01 0.01 0.01 0.01 0.00 0.01 0.02 0.00 0.00 0.00 0.00 0.00 0.00 0.00 0.01 0.01 0.02 0.03 0.06 0.10 0.19 0.27 0.27 0.29 0.30 0.30 0.26 0.23 0.21 0.19 0.14 0.17 0.23 0.25 0.17 0.10 0.10 0.09 0.05 0.01 0.00
0.01 0.01 0.00 0.00 0.01 0.01 0.01 0.01 0.00 0.00 0.00 0.00 0.00 0.00 0.00 0.00 0.00 0.00 0.01 0.02 0.03 0.04 0.05 0.07 0.10 0.14 0.16 0.18 0.20 0.20 0.20 0.19 0.19 0.20 0.16 0.13 0.10 0.08 0.07 0.05 0.03 0.02 0.01
0.01 0.01 0.00 0.01 0.01 0.01 0.01 0.01 0.01 0.00 0.00 0.00 0.00 0.00 0.00 0.00 0.01 0.01 0.02 0.02 0.04 0.03 0.03 0.05 0.05 0.06 0.08 0.13 0.12 0.11 0.11 0.12 0.14 0.15 0.17 0.18 0.18 0.16 0.14 0.12 0.11 0.09 0.07
0.01 0.00 0.01 0.01 0.01 0.01 0.00 0.00 0.00 0.00 0.00 0.00 0.00 0.00 0.00 0.00 0.00 0.00 0.01 0.02 0.04 0.03 0.03 0.04 0.04 0.06 0.06 0.06 0.05 0.05 0.05 0.05 0.04 0.04 0.06 0.08 0.09 0.09 0.08 0.08 0.08 0.07 0.06